FENGYUN 1C DEB, 30045

Orbit data source: Space-Track

FENGYUN 1C DEB, 30045 is space debris in SSO originally from a launch on Mon, 10 May 1999 UTC launched from the Taiyaun Space Center, China (TSC). Fengyun 1C debris stems from the Chinese weather satellite Fengyun-1C, which was intentionally destroyed by a Chinese anti-satellite missile in 2007. This event dramatically increased the amount of space debris, with thousands of trackable fragments posing hazards to satellites and human spaceflight. The Fengyun 1C debris cloud has become a focal point in discussions about space sustainability and the need for international regulations to prevent the creation of new debris.

Loading next visibility...
Identifier
30045, 1999-025NW
Orbit
SSO
Country
Flag of CNCN / PRC
Related business
Manufacturer
Unknown
Mission
Spacecraft
Bus & Motor
Unknown
Mass
Unknown
Launch date (UTC)
1999-05-10 (27 years ago)
Launch vehicle
Unknown
Launch site
Taiyaun Space Center, China (TSC)
Object type
Payload
Rocket body
Debris
Shape & HBR
Unknown shape, 0.1 m
Radar Cross Section
Medium (>0.1 m² and <1 m²)

Expand to show TLE details & history
Last TLE update: 11 hours ago

TLE from 11 hours ago
0 FENGYUN 1C DEB
1 30045U 99025NW  26254.09190361  .00002068  00000-0  88751-3 0  9993
2 30045  99.1666 305.8110 0091632  56.8577 334.1936 14.23674698  5620
Epoch: 2026-09-11T02:12Z
TLE epoch observation values (Epoch: 2026-09-11T02:12:20.471Z)
Latitude
30.21156°
Longitude
-82.75713°
Altitude
757.508 km
Speed
7.509 km/s
True Right ascension
20h 01m 47s
True Declination
30° 03' 44"
Sunlit
Object was in full shadow at epoch
Visualization orbit readout
Latitude
Unknown
Longitude
Unknown
Altitude
Unknown
Speed
Unknown
Apparent Right ascension
Unknown
Apparent Declination
Unknown
Sunlit
N/A
Visualization observer readout
Local Sidereal Time
05:39:48
Azimuth
Unknown
Elevation
Unknown
Doppler factor
Unknown
Orbital elements
Apogee altitude
875.995 km
Perigee altitude
744.26 km
Semi-major axis
7,188.265 km
Eccentricity
0.00916
Inclination
99.1666°
RAAN
305.811°
Arg. of periapsis
56.8577°
True anomaly
333.73174°
Mean anomaly
334.1936°
Eccentric anomaly
333.96315°
Mean motion
3.56129 °/min
Orbital period
101.09 mins
BSTAR
0.00088751
Loading maneuver chart data...
Computing Atmospheric mass density...
Loading historical data...
Loading historical data...
Loading historical data...
Loading historical data...
Loading historical data...
Loading historical data...
Loading historical data...

Documentation

Showing up to 5 results
|